Regional Weather Roundup
Issued by NWS Northern Indiana

Home | Current Version | Previous Version | Graphics & Text | Print | Product List | Glossary On
Versions: 1 2 3 4 5 6 7 8 9 10 11 12 13 14 15 16 17 18 19 20 21 22 23 24 25 26 27 28 29 30 31 32 33 34 35 36 37 38 39 40 41 42 43 44 45 46 47 48 49 50
000
ASUS43 KIWX 050710
RWRIWX

KIWX WEATHER ROUNDUP
NATIONAL WEATHER SERVICE NORTHERN INDIANA
300 AM EDT THU MAY 05 2016

NOTE: "FAIR" INDICATES FEW OR NO CLOUDS BELOW 12,000 FEET WITH NO
SIGNIFICANT WEATHER AND/OR OBSTRUCTIONS TO VISIBILITY.

* THESE STATIONS ARE NOT UNDER NWS QUALITY CONTROL. THEY ALSO MAY NOT
  REPORT WEATHER SUCH AS PRECIPITATION OR FOG.

INZ001>027-050800-
NORTHERN INDIANA

CITY           SKY/WX    TMP DP  RH WIND       PRES   REMARKS
GARY*          CLOUDY    43  42  98 N23G33    29.87S
VALPARAISO     CLOUDY    40  37  89 N20G32    29.81F
MICHIGAN CITY* CLOUDY    41  41 100 N15G24    29.83S
LAPORTE*       CLOUDY    42  42 100 N18G26    29.81R
KNOX*          CLOUDY    41  36  81 N18       29.79S
SOUTH BEND     CLOUDY    42  40  92 N15       29.79R
GOSHEN         CLOUDY    43  40  89 NE8       29.77R
MONTICELLO*    CLOUDY    40  37  87 N18       29.77F
LOGANSPORT*    DRIZZLE   41  39  93 N12G20    29.76F
ROCHESTER*     CLOUDY    45  43  93 N13       29.75S
WARSAW*        CLOUDY    43  41  93 NE13      29.76R
ANGOLA*        CLOUDY    39  37  93 CALM      29.75S
FORT WAYNE     CLOUDY    41  38  89 NE7       29.75S
HUNTINGTON*    CLOUDY    40  39  96 NE7       29.74S
PERU/GRISSOM   LGT RAIN  41  41 100 N13       29.73S FOG
MARION*        CLOUDY    40  39  96 N8        29.74S FOG

$$
INZ028>050-050800-
CENTRAL INDIANA

CITY           SKY/WX    TMP DP  RH WIND       PRES   REMARKS
LAFAYETTE      CLOUDY    41  38  89 N17G23    29.78F
KOKOMO*        CLOUDY    41  37  87 N12       29.74S
MUNCIE*        LGT RAIN  42  39  89 N6        29.73F FOG
INDIANAPOLIS   LGT RAIN  42  38  85 NW17      29.74F

$$
MIZ043>046-050>051-056>058-064>065-071>073-077>080-050800-
SOUTHWEST LOWER MICHIGAN

CITY           SKY/WX    TMP DP  RH WIND       PRES   REMARKS
BATTLE CREEK   CLOUDY    46  44  93 N13       29.78S
BENTON HARBOR  CLOUDY    44  40  85 N8G20     29.82R
COLDWATER*     DRIZZLE   43  43 100 NW3       29.76F
HILLSDALE*     LGT RAIN  43  41  94 N6        29.74S
HOLLAND        CLOUDY   N/A N/A N/A N10G16    29.84S
GRAND RAPIDS   CLOUDY    46  42  86 N10       29.83R
KALAMAZOO      CLOUDY    47  43  86 N13       29.79R
STURGIS*       DRIZZLE   42  41  97 NE3       29.76S
THREE RIVERS*  CLOUDY    46  43  90 N6        29.78S

$$
OHZ001>008-015>018-024>025-050800-
NORTHWEST OHIO

CITY           SKY/WX    TMP DP  RH WIND       PRES   REMARKS
WAUSEON*         N/A     43 N/A N/A NW6       29.74S
DEFIANCE       CLOUDY    43  37  79 N5        29.75S
FINDLAY        CLOUDY    43  37  79 NW5       29.72F
TOLEDO EXPRESS LGT RAIN  43  41  93 W6        29.73S
TOLEDO METCALF CLOUDY    45  42  89 NW8       29.73F
LIMA           CLOUDY    40  38  93 N3        29.73S

$$
AND FOR LAKE MICHIGAN COASTAL AND OPEN LAKE BUOY OBSERVATIONS

STATION/POSITION TEMP    WIND        PRES    VSBY  WAVE
                 AIR SEA DIR/SP/G                  HT/PER
                 (F)     (DEG/KT/KT) (MB)    (MI)  (FT/S)
CALUMET HARBOR    42     340/ 23/ 32 1011.0S
MICHIGAN CITY     41     340/ 35/ 41   N/A
BURNS HARBOR      42     360/ 24     1010.5S
SAINT JOSEPH      44     350/ 18/ 23 1010.2R
SOUTH LAKE BUOY   40 40   20/ 23/ 27 1011.1R         9/ 8
4 MI NW BRIDGMAN  43 46                N/A          10/ 7

$$
&&



USA.gov is the U.S. government's official web portal to all federal, state and local government web resources and services.